Regional Weather Roundup
Issued by NWS

Home | Current Version | Previous Version | Graphics & Text | Print | Product List | Glossary On
Versions: 1 2 3 4 5 6 7 8 9 10 11 12 13 14 15 16 17 18 19 20 21 22 23 24 25 26 27 28 29 30 31 32 33 34 35 36 37 38 39 40 41 42 43 44 45 46 47 48 49 50
000
ASUS43 KBIS 270510
RWRND

NORTH DAKOTA REGIONAL WEATHER ROUNDUP
NATIONAL WEATHER SERVICE BISMARCK ND
1200 AM CDT MON MAR 27 2017

NOTE: "FAIR" INDICATES FEW OR NO CLOUDS BELOW 12,000 FEET WITH NO
SIGNIFICANT WEATHER AND/OR OBSTRUCTIONS TO VISIBILITY.


NDZ001>003-009>011-017-270600-
NORTHWEST NORTH DAKOTA

CITY           SKY/WX    TMP DP  RH WIND       PRES   REMARKS
WILLISTON      MOCLDY    40  28  62 CALM      29.89F
MINOT          FAIR      41  38  89 SE6       29.88S
MINOT AFB      PTCLDY    39  36  91 NE3       29.88R
$$

NDZ018>021-031>035-040>046-270600-
SOUTHWEST NORTH DAKOTA

CITY           SKY/WX    TMP DP  RH WIND       PRES   REMARKS
BISMARCK       FAIR      40  35  83 E3        29.93R
DICKINSON      FAIR      43  30  60 CALM      29.87S
GARRISON         N/A     44  36  73 SW3       29.90R
HETTINGER ARPT PTCLDY    40  34  79 CALM      29.92S
$$

NDZ004>008-012>016-024-026-027-054-270600-
NORTHEAST NORTH DAKOTA

CITY           SKY/WX    TMP DP  RH WIND       PRES   REMARKS
GRAND FORKS    CLOUDY    40  39  97 CALM      29.95R
GRND FRKS AFB  FOG       32  32 100 NW3       29.95R VSB 1/2
DEVILS LAKE    FAIR      34  32  93 SE5       29.93S FOG
$$

NDZ022-023-025-028>030-036>039-047>053-270600-
SOUTHEAST NORTH DAKOTA

CITY           SKY/WX    TMP DP  RH WIND       PRES   REMARKS
FARGO          MOCLDY    36  35  96 CALM      29.94S
JAMESTOWN      FAIR      37  36  96 S5        29.92R
$$





USA.gov is the U.S. government's official web portal to all federal, state and local government web resources and services.